Palestine, TX

5:42 AM CDT on April 26, 2017 (GMT -0500)
Palestine Municipal

Weather History for KPSN - March, 2013

Change the Weather History Date:

Sunday, March 10, 2013

  Actual Average (KTYR) Record (KTYR)
Temperature  
Mean Temperature 53 °F -  
Max Temperature 65 °F 63 °F 90 °F (1911)
Min Temperature 41 °F 44 °F 24 °F (1932)
Degree Days  
Heating Degree Days 12    
Growing Degree Days 3 (Base 50)    
Moisture  
Dew Point 44 °F    
Average Humidity 69    
Maximum Humidity 97    
Minimum Humidity 42    
Precipitation  
Precipitation 0.59 in - - ()
Sea Level Pressure  
Sea Level Pressure 29.92 in    
Wind  
Wind Speed 10 mph (WNW)    
Max Wind Speed 20 mph    
Max Gust Speed 28 mph    
Visibility 10 miles    
Events Rain    
Averages and records for this station are not official NWS values.
T = Trace of Precipitation, MM = Missing Value Source: NWS Daily Summary

Daily Weather History Graph

Daily Weather History Graph

Search for Another Location

Airport or City:

Trip Planner

Search our weather history database for the weather conditions in past years. The results will help you decide how hot, cold, wet, or windy it might be!

Date:

Astronomy

Mar. 10, 2013 Rise Set
Actual Time 7:38 AM CDT 7:27 PM CDT
Civil Twilight 7:14 AM CDT 7:51 PM CDT
Nautical Twilight 6:46 AM CDT 8:20 PM CDT
Astronomical Twilight 6:17 AM CDT 8:48 PM CDT
Moon 6:37 AM CDT (3/10) 6:36 PM CDT (3/10)
Length of Visible Light 12h 37m
Length of Day
11h 48m
Waning Crescent, 2% of the Moon is Illuminated
Mar 10
Waning Crescent
Mar 11
New
Mar 19
First Quarter
Mar 27
Full
Apr 2
Last Quarter

Hourly Weather History & Observations

Time (CDT) Temp. Windchill Dew Point Humidity Pressure Visibility Wind Dir Wind Speed Gust Speed Precip Events Conditions
12:15 AM 65.7 °F - 59.2 °F 80% 29.82 in 10.0 mi SSE 11.5 mph 17.3 mph N/A   Overcast
12:35 AM 65.5 °F - 59.2 °F 80% 29.80 in 10.0 mi SE 9.2 mph - N/A   Overcast
12:55 AM 65.3 °F - 59.2 °F 81% 29.82 in 10.0 mi SE 10.4 mph - N/A   Overcast
1:15 AM 64.6 °F - 59.5 °F 84% 29.80 in 10.0 mi SE 8.1 mph 18.4 mph N/A   Light Drizzle
1:35 AM 63.9 °F - 59.9 °F 87% 29.78 in 10.0 mi SE 10.4 mph 16.1 mph N/A Rain Light Rain
1:55 AM 63.9 °F - 59.9 °F 87% 29.77 in 10.0 mi SE 10.4 mph - N/A Rain Light Rain
3:15 AM 63.9 °F - 59.9 °F 87% 29.76 in 10.0 mi SE 8.1 mph - N/A   Light Drizzle
3:35 AM 63.9 °F - 59.9 °F 87% 29.74 in 10.0 mi SE 12.7 mph 17.3 mph N/A   Overcast
3:55 AM 63.9 °F - 60.1 °F 87% 29.74 in 10.0 mi SSE 8.1 mph - N/A   Overcast
4:15 AM 63.5 °F - 60.3 °F 89% 29.72 in 10.0 mi SSE 9.2 mph 19.6 mph N/A   Light Drizzle
4:35 AM 63.5 °F - 60.4 °F 90% 29.71 in 10.0 mi SSE 9.2 mph 19.6 mph N/A Rain Light Rain
4:55 AM 63.0 °F - 60.8 °F 93% 29.73 in 5.0 mi South 8.1 mph - 0.04 in Rain Rain
5:15 AM 54.7 °F - 53.2 °F 95% 29.79 in 1.2 mi NW 11.5 mph 20.7 mph 0.37 in Rain Rain
5:35 AM 54.5 °F - 53.6 °F 97% 29.78 in 4.0 mi NW 8.1 mph - 0.48 in Rain Heavy Rain
5:55 AM 54.5 °F - 53.6 °F 97% 29.80 in 5.0 mi NW 4.6 mph - 0.54 in Rain Rain
6:15 AM 54.5 °F - 53.6 °F 97% 29.79 in 10.0 mi North 5.8 mph - 0.01 in   Light Drizzle
6:35 AM 54.1 °F - 53.2 °F 97% 29.79 in 10.0 mi NNW 16.1 mph 27.6 mph 0.01 in   Overcast
6:55 AM 52.5 °F - 51.6 °F 97% 29.80 in 10.0 mi North 13.8 mph - 0.01 in   Overcast
7:15 AM 52.2 °F - 51.3 °F 97% 29.82 in 10.0 mi NNW 10.4 mph - N/A   Overcast
7:35 AM 52.7 °F - 50.5 °F 92% 29.85 in 10.0 mi NW 5.8 mph - N/A Rain Rain
7:55 AM 53.2 °F - 49.5 °F 87% 29.86 in 10.0 mi NW 4.6 mph - N/A   Overcast
8:15 AM 52.9 °F - 50.0 °F 90% 29.83 in 10.0 mi NE 3.5 mph - N/A   Overcast
8:35 AM 53.1 °F - 49.5 °F 88% 29.84 in 10.0 mi Calm Calm - N/A   Overcast
8:55 AM 53.6 °F - 49.1 °F 85% 29.82 in 10.0 mi ENE 3.5 mph - N/A   Overcast
9:15 AM 54.5 °F - 48.9 °F 81% 29.84 in 10.0 mi Calm Calm - N/A Rain Light Rain
9:35 AM 54.3 °F - 50.0 °F 85% 29.85 in 10.0 mi Calm Calm - N/A   Overcast
9:55 AM 54.5 °F - 49.5 °F 83% 29.87 in 10.0 mi Calm Calm - N/A   Overcast
10:15 AM 54.5 °F - 50.9 °F 88% 29.88 in 10.0 mi SSE 3.5 mph - N/A Rain Light Rain
10:35 AM 54.7 °F - 50.9 °F 87% 29.90 in 10.0 mi SW 5.8 mph - N/A Rain Light Rain
10:55 AM 56.5 °F - 52.0 °F 85% 29.91 in 10.0 mi SW 5.8 mph - N/A   Overcast
11:15 AM 56.8 °F - 49.8 °F 77% 29.92 in 10.0 mi West 15.0 mph 19.6 mph N/A   Overcast
11:35 AM 57.0 °F - 47.5 °F 70% 29.92 in 10.0 mi NW 11.5 mph 17.3 mph N/A   Overcast
11:55 AM 56.1 °F - 44.6 °F 65% 29.94 in 10.0 mi WNW 13.8 mph 23.0 mph N/A   Overcast
12:15 PM 56.8 °F - 42.6 °F 59% 29.95 in 10.0 mi WNW 15.0 mph 20.7 mph N/A   Mostly Cloudy
12:35 PM 58.3 °F - 39.9 °F 50% 29.95 in 10.0 mi WNW 16.1 mph 21.9 mph N/A   Clear
12:55 PM 58.3 °F - 39.0 °F 49% 29.95 in 10.0 mi West 13.8 mph 24.2 mph N/A   Clear
1:15 PM 59.4 °F - 37.9 °F 45% 29.95 in 10.0 mi West 16.1 mph 24.2 mph N/A   Clear
1:35 PM 59.2 °F - 37.4 °F 44% 29.95 in 10.0 mi WNW 11.5 mph 20.7 mph N/A   Clear
1:55 PM 59.9 °F - 36.7 °F 42% 29.94 in 10.0 mi West 19.6 mph 25.3 mph N/A   Clear
2:15 PM 60.6 °F - 37.8 °F 43% 29.94 in 10.0 mi West 18.4 mph 21.9 mph N/A   Clear
2:35 PM 61.2 °F - 39.4 °F 45% 29.95 in 10.0 mi WNW 17.3 mph 24.2 mph N/A   Scattered Clouds
2:55 PM 60.4 °F - 38.7 °F 45% 29.95 in 10.0 mi WNW 10.4 mph 20.7 mph N/A   Mostly Cloudy
3:15 PM 59.9 °F - 36.7 °F 42% 29.94 in 10.0 mi WNW 13.8 mph 26.5 mph N/A   Scattered Clouds
3:35 PM 60.4 °F - 37.6 °F 43% 29.94 in 10.0 mi NW 12.7 mph 23.0 mph N/A   Clear
3:55 PM 59.4 °F - 37.2 °F 44% 29.95 in 10.0 mi WNW 13.8 mph 19.6 mph N/A   Clear
4:15 PM 58.8 °F - 36.1 °F 43% 29.95 in 10.0 mi NW 16.1 mph 21.9 mph N/A   Clear
4:35 PM 58.5 °F - 37.0 °F 45% 29.95 in 10.0 mi WNW 13.8 mph 23.0 mph N/A   Clear
4:55 PM 58.1 °F - 36.9 °F 45% 29.96 in 10.0 mi WNW 15.0 mph 21.9 mph N/A   Clear
5:15 PM 57.0 °F - 36.7 °F 47% 29.97 in 10.0 mi NW 15.0 mph 18.4 mph N/A   Clear
5:35 PM 55.6 °F - 35.8 °F 47% 29.97 in 10.0 mi NW 15.0 mph 23.0 mph N/A   Clear
5:55 PM 55.2 °F - 35.6 °F 48% 29.98 in 10.0 mi West 15.0 mph 21.9 mph N/A   Clear
6:15 PM 53.8 °F - 34.7 °F 48% 29.98 in 10.0 mi WNW 12.7 mph 20.7 mph N/A   Clear
6:35 PM 53.6 °F - 34.9 °F 49% 29.99 in 10.0 mi NW 11.5 mph - N/A   Clear
6:55 PM 52.7 °F - 34.7 °F 50% 29.99 in 10.0 mi NW 12.7 mph 18.4 mph N/A   Clear
7:15 PM 51.8 °F - 34.3 °F 51% 30.00 in 10.0 mi WNW 9.2 mph - N/A   Clear
7:35 PM 50.5 °F - 34.0 °F 53% 30.01 in 10.0 mi WNW 9.2 mph - N/A   Clear
7:55 PM 49.6 °F - 33.8 °F 54% 30.03 in 10.0 mi NW 9.2 mph - N/A   Clear
8:15 PM 49.1 °F - 33.1 °F 54% 30.04 in 10.0 mi NW 8.1 mph - N/A   Clear
8:35 PM 47.8 °F - 33.1 °F 57% 30.04 in 10.0 mi NW 4.6 mph - N/A   Clear
8:55 PM 47.1 °F - 33.3 °F 59% 30.05 in 10.0 mi NW 4.6 mph - N/A   Clear
9:15 PM 46.4 °F 43.5 °F 33.4 °F 61% 30.06 in 10.0 mi NW 5.8 mph - N/A   Clear
9:35 PM 45.3 °F 43.0 °F 33.8 °F 64% 30.08 in 10.0 mi NW 4.6 mph - N/A   Clear
9:55 PM 44.8 °F 41.6 °F 34.0 °F 66% 30.09 in 10.0 mi NW 5.8 mph - N/A   Clear
10:15 PM 44.1 °F 40.8 °F 33.8 °F 67% 30.10 in 10.0 mi NW 5.8 mph - N/A   Clear
10:35 PM 43.9 °F 38.3 °F 33.4 °F 67% 30.10 in 10.0 mi NW 10.4 mph - N/A   Clear
10:55 PM 44.2 °F 39.7 °F 32.0 °F 62% 30.09 in 10.0 mi NW 8.1 mph - N/A   Clear
11:15 PM 43.7 °F 38.6 °F 32.0 °F 63% 30.07 in 10.0 mi NNW 9.2 mph - N/A   Clear
11:35 PM 42.8 °F 38.0 °F 31.3 °F 64% 30.06 in 10.0 mi NNW 8.1 mph - N/A   Clear
11:55 PM 42.4 °F 40.7 °F 30.9 °F 64% 30.09 in 10.0 mi NW 3.5 mph - N/A   Clear
12:15 AM 41.5 °F 39.6 °F 30.9 °F 66% 30.10 in 10.0 mi WNW 3.5 mph - N/A   Clear
12:35 AM 41.9 °F 40.0 °F 31.1 °F 66% 30.10 in 10.0 mi WNW 3.5 mph - N/A   Clear
12:55 AM 41.0 °F - 31.1 °F 68% 30.11 in 10.0 mi Calm Calm - N/A   Clear